Regional Weather Roundup
Issued by NWS

Home | Current Version | Previous Version | Text Only | Print | Product List | Glossary Off
Versions: 1 2 3 4 5 6 7 8 9 10 11 12 13 14 15 16 17 18 19 20 21 22 23 24 25 26 27 28 29 30 31 32 33 34 35 36 37 38 39 40 41 42 43 44 45 46 47 48 49 50

000
ASUS45 KCYS 272210
RWRWY

WYOMING REGIONAL WEATHER ROUNDUP
NATIONAL WEATHER SERVICE CHEYENNE WY
400 PM MDT MON APR 27 2015

NOTE:  "FAIR" INDICATES FEW OR NO CLOUDS BELOW 12,000 FEET
WITH NO SIGNIFICANT WEATHER AND/OR OBSTRUCTIONS TO VISIBILITY.

WYZ001-272300-
YELLOWSTONE NATIONAL PARK

CITY           SKY/WX    TMP DP  RH WIND       PRES   REMARKS
LK YELLOWSTONE   N/A     45  21  38 VRB5      30.31F
W YELLOWSTONE  NOT AVBL

$$
WYZ002>013-054>058-071-098>099-272300-
NORTHERN WYOMING

CITY           SKY/WX    TMP DP  RH WIND       PRES   REMARKS
JACKSON        MOSUNNY   55  27  33 VRB3      30.24F
CODY           FAIR      54  36  50 SE6       30.27F
GREYBULL       FAIR      58  32  37 VRB7      30.27F
WORLAND        FAIR      54  34  46 VRB3      30.28F
SHERIDAN       PTSUNNY   52  37  56 S7        30.29S
BUFFALO        CLOUDY    47  35  63 NE5       30.31F
GILLETTE       CLOUDY    49  35  58 VRB3      30.29F
HULETT         CLOUDY    45  36  70 CALM      30.32F
NEWCASTLE      LGT RAIN  45  41  87 NW6       30.31F

$$
WYZ014>020-022>026-101>103-272300-
CENTRAL WYOMING

CITY           SKY/WX    TMP DP  RH WIND       PRES   REMARKS
BIG PINEY      CLOUDY    54  28  36 S7        30.25F
PINEDALE       MOCLDY    50  32  50 W6        30.27S
DUBOIS         FAIR      48  32  53 S8        30.26F
LANDER         CLOUDY    48  34  58 CALM      30.28F
RIVERTON       CLOUDY    50  34  54 E6        30.29F
CASPER         CLOUDY    44  35  70 NE7       30.31F
DOUGLAS        CLOUDY    44  37  76 CALM      30.32F

$$
WYZ021-027>030-104>119-272300-
SOUTHERN WYOMING

CITY           SKY/WX    TMP DP  RH WIND       PRES   REMARKS
EVANSTON       CLOUDY    52  31  44 VRB7      30.26F
KEMMERER       MOCLDY    50  32  50 CALM      30.28S
FORT BRIDGER   CLEAR     52  34  50 E5        30.30S
ROCK SPRINGS   FAIR      50  36  58 NE15      30.26F
DIXON          CLOUDY    54  36  50 N8G17     30.21S
RAWLINS        FAIR      51  33  50 NE9G22    30.26S
SARATOGA       CLOUDY    50  36  57 MISG      30.23S
LARAMIE        CLOUDY    45  34  65 E10       30.24F
CHEYENNE       CLOUDY    41  36  82 E9        30.28F
TORRINGTON     CLOUDY    50  41  71 NW12      30.27S
PINE BLUFFS    CLOUDY    46  36  66 CALM      30.28F

$$



USA.gov is the U.S. government's official web portal to all federal, state and local government web resources and services.